SLVR

Viru Viru International Airport

Airport
ICAO code
SLVR
IATA Code
VVI
Summary
ICAO Region
CARSAM
ICAO Territory
Location

Santa Cruz de la Sierra, Santa Cruz

Serving
Santa Cruz
Elevation
1224 ft
Coordinates
17° 38' 41" S , 63° 8' 7" W
KCC
Metar
SLVR 151300Z 35008KT 9999 BKN012 BKN023 25/23 Q1015

International Airport serving Santa Cruz de la Sierra, Bolivia.

Climatology

Tropical Savanna climate (Köppen climate classification Aw).

Runways

Designator Length Width Surface Rops
16/34 3500 45 CON Yes/Yes

Airport map

Aerial View

SKYbrary Partners:

Safety knowledge contributed by: